Date,TemperatureHighF,TemperatureAvgF,TemperatureLowF,DewpointHighF,DewpointAvgF,DewpointLowF,HumidityHigh,HumidityAvg,HumidityLow,PressureMaxIn,PressureMinIn,WindSpeedMaxMPH,WindSpeedAvgMPH,GustSpeedMaxMPH,PrecipitationSumIn
2013-1-1,28,16,8,16,9,3,88,75,55,30.27,30.15,5,1,14,0.00
2013-1-2,33,27,18,25,19,10,89,73,57,30.33,30.14,15,6,19,0.00
2013-1-3,27,19,8,16,10,2,78,70,50,30.37,30.27,7,2,14,0.00
2013-1-4,34,18,8,20,8,0,80,66,49,30.30,30.11,6,2,14,0.00
2013-1-5,39,26,12,25,16,6,81,65,54,30.32,30.07,15,4,21,0.01
2013-1-6,36,21,8,21,12,1,86,71,54,30.31,29.96,4,0,14,0.00
2013-1-7,45,28,15,24,18,12,87,69,40,30.05,29.84,7,0,14,0.00
2013-1-8,49,32,14,29,21,10,85,68,44,30.22,29.78,13,2,18,0.00
2013-1-9,50,35,21,31,25,16,82,67,46,30.33,30.11,9,2,15,0.00
2013-1-10,40,34,26,35,30,20,97,85,71,30.11,29.43,6,1,14,0.00
2013-1-11,36,26,11,36,23,3,100,90,68,29.87,29.27,17,6,31,0.01
2013-1-12,16,9,0,5,0,-6,75,66,58,30.27,29.87,17,6,23,0.00
2013-1-13,17,6,-4,5,-2,-10,77,70,57,30.42,30.26,7,1,14,0.00
2013-1-14,21,8,-2,12,2,-10,81,73,61,30.49,30.34,6,1,14,0.00
2013-1-15,32,14,-3,23,6,-10,79,69,54,30.35,30.11,13,3,18,0.00
2013-1-16,47,37,32,28,23,18,69,56,45,30.28,30.08,21,8,26,0.00
2013-1-17,51,37,25,25,19,14,73,51,28,30.42,30.11,10,1,17,0.00
2013-1-18,58,38,23,23,17,13,80,48,17,30.10,29.90,13,2,20,0.00
2013-1-19,54,40,25,23,17,14,80,43,21,30.17,29.90,12,4,20,0.00
2013-1-20,38,24,12,24,16,7,84,72,54,30.38,30.09,16,3,21,0.00
2013-1-21,34,21,9,21,13,5,89,73,50,30.34,30.16,4,0,14,0.00
2013-1-22,56,31,16,24,16,10,92,61,16,30.16,30.04,9,1,15,0.00
2013-1-23,42,27,17,20,14,10,72,59,37,30.31,30.07,5,1,14,0.00
2013-1-24,40,25,13,25,16,7,82,70,47,30.31,30.00,10,3,16,0.00
2013-1-25,58,40,20,29,23,13,79,54,32,30.20,30.01,8,2,14,0.00
2013-1-26,62,40,23,31,25,18,85,59,27,30.02,29.70,2,0,14,0.00
2013-1-27,56,42,34,44,37,31,96,84,54,29.70,29.56,6,0,14,0.12
2013-1-28,41,33,28,40,31,26,97,94,91,29.70,29.51,12,2,15,0.01
2013-1-29,31,28,23,27,23,16,91,82,73,29.90,29.64,16,3,23,0.00
2013-1-30,33,23,10,23,13,3,78,66,49,29.96,29.83,17,4,21,0.00
2013-1-31,32,21,14,23,12,4,81,68,60,30.25,29.91,10,3,18,0.00
2013-2-1,47,32,20,33,24,14,90,71,49,30.22,29.99,7,1,14,0.00
2013-2-2,51,38,28,28,24,18,90,58,27,30.21,30.12,13,5,20,0.00
2013-2-3,54,36,20,25,21,16,83,58,27,30.19,29.78,12,1,16,0.00
2013-2-4,57,39,24,23,20,16,73,50,20,29.90,29.72,8,1,15,0.00
2013-2-5,55,41,27,26,23,19,75,50,28,29.97,29.78,10,2,16,0.00
2013-2-6,60,43,34,29,24,20,63,49,22,29.92,29.65,8,1,14,0.00
2013-2-7,51,37,22,32,22,12,92,58,23,30.07,29.92,13,3,16,0.00
2013-2-8,56,38,21,25,20,13,72,49,28,30.06,29.70,13,3,22,0.00
2013-2-9,53,35,22,30,22,15,92,62,27,29.70,29.34,14,4,20,0.00
2013-2-10,33,27,21,26,21,12,90,77,63,30.05,29.34,20,14,35,0.01
2013-2-11,31,22,15,16,11,7,80,64,46,30.17,30.05,10,2,15,0.00
2013-2-12,40,25,10,23,13,4,81,62,42,30.11,30.01,9,2,17,0.00
2013-2-13,50,36,19,32,22,13,80,58,32,30.02,29.80,14,4,24,0.00
2013-2-14,37,31,21,28,22,16,83,70,47,30.30,29.92,17,5,22,0.00
2013-2-15,30,21,14,18,13,9,83,70,42,30.38,30.29,12,2,17,0.00
2013-2-16,55,38,21,27,22,15,77,57,30,30.30,29.86,16,4,22,0.00
2013-2-17,51,37,24,29,23,17,77,59,33,29.86,29.48,16,2,25,0.00
2013-2-18,38,32,16,27,20,11,80,64,42,30.11,29.64,15,6,28,0.00
2013-2-19,40,25,13,19,13,4,86,63,40,30.23,30.07,9,2,16,0.00
2013-2-20,23,19,15,18,10,1,88,70,45,30.07,29.92,9,3,17,0.00
2013-2-21,19,17,13,16,13,9,89,85,79,30.01,29.92,10,3,16,0.00
2013-2-22,31,17,4,23,12,-1,85,80,69,30.08,29.96,3,0,14,0.19
2013-2-23,39,23,8,26,16,4,86,74,56,29.96,29.73,8,1,14,0.04
2013-2-24,36,32,25,32,26,22,91,79,63,30.06,29.77,13,5,21,0.00
2013-2-25,38,27,14,26,20,9,87,75,55,30.08,29.89,6,1,14,0.01
2013-2-26,40,24,7,26,13,3,83,66,27,30.04,29.85,5,1,14,0.00
2013-2-27,40,32,25,28,22,19,80,68,47,30.18,30.04,13,5,23,0.00
2013-2-28,44,31,17,28,20,11,87,66,38,30.23,30.14,10,2,16,0.00
2013-3-1,44,32,21,28,23,17,92,71,34,30.27,30.19,11,3,17,0.01
2013-3-2,60,44,28,35,30,23,84,62,31,30.23,29.89,11,2,20,0.00
2013-3-3,66,48,32,36,31,28,86,55,25,29.89,29.44,15,3,21,0.00
2013-3-4,48,35,23,32,17,6,76,49,27,30.15,29.47,19,10,25,0.00
2013-3-5,42,28,20,13,9,5,72,47,23,30.34,30.15,15,5,19,0.00
2013-3-6,47,31,19,25,19,12,80,63,41,30.28,29.90,12,4,21,0.00
2013-3-7,56,36,22,30,26,19,89,69,36,29.99,29.88,1,0,14,0.00
2013-3-8,52,41,28,39,31,23,88,69,45,29.99,29.57,4,1,14,0.00
2013-3-9,45,33,26,44,32,22,97,94,86,29.96,29.44,18,11,28,0.02
2013-3-10,31,24,12,22,14,7,86,68,50,30.14,29.97,19,8,23,0.00
2013-3-11,45,30,12,34,21,7,86,72,52,30.12,29.92,11,1,20,0.02
2013-3-12,42,34,24,27,18,11,78,54,29,30.26,30.11,15,6,23,0.00
2013-3-13,65,42,21,37,27,16,80,58,24,30.25,30.03,4,0,14,0.00
2013-3-14,71,54,40,35,32,29,72,46,22,30.10,29.84,7,1,14,0.00
2013-3-15,76,56,41,38,31,22,68,44,14,29.84,29.58,13,3,20,0.00
2013-3-16,48,39,31,32,27,23,85,64,47,29.90,29.74,6,1,14,0.00
2013-3-17,52,38,29,37,29,20,95,74,34,29.87,29.48,18,5,24,0.03
2013-3-18,46,36,26,24,16,10,77,48,23,29.97,29.75,14,5,25,0.00
2013-3-19,46,35,25,31,20,9,88,56,30,30.33,29.93,16,4,22,0.00
2013-3-20,50,32,14,19,14,8,83,51,26,30.36,29.79,13,3,22,0.00
2013-3-21,45,35,25,36,23,16,92,63,40,29.79,29.56,12,4,17,0.05
2013-3-22,48,38,30,32,28,24,92,68,42,29.86,29.71,11,2,16,0.01
2013-3-23,33,25,20,31,20,13,93,80,64,30.20,29.83,16,7,27,0.00
2013-3-24,31,20,8,16,10,2,79,66,44,30.31,30.15,15,5,20,0.01
2013-3-25,34,22,12,13,10,6,77,60,33,30.39,30.31,10,4,16,0.00
2013-3-26,42,29,10,28,17,6,83,64,32,30.32,30.03,11,2,18,0.00
2013-3-27,60,41,26,33,25,20,85,59,24,30.06,29.99,2,0,14,0.00
2013-3-28,66,47,30,36,32,26,89,61,31,30.05,29.90,9,2,18,0.00
2013-3-29,73,53,39,41,35,30,79,54,21,29.99,29.75,15,2,24,0.00
2013-3-30,62,51,41,39,34,31,73,54,36,29.92,29.81,10,4,14,0.00
2013-3-31,42,38,36,23,22,21,60,53,44,30.03,29.94,10,5,16,0.00
2013-4-1,53,40,27,26,24,20,81,55,28,30.13,30.02,7,1,14,0.00
2013-4-2,52,41,28,34,28,22,80,61,41,30.11,30.04,10,3,18,0.00
2013-4-3,56,44,33,34,29,25,88,60,32,30.11,29.97,14,5,27,0.00
2013-4-4,66,48,30,34,30,26,85,56,28,30.06,29.89,4,0,14,0.00
2013-4-5,78,59,40,39,31,27,70,39,17,29.89,29.41,17,2,29,0.00
2013-4-6,69,57,46,39,31,23,67,40,19,29.64,29.49,17,6,24,0.00
2013-4-7,70,56,47,45,35,29,83,47,24,29.62,29.42,7,1,14,0.05
2013-4-8,74,53,31,41,34,28,93,55,20,29.57,29.29,22,5,32,0.30
2013-4-9,32,18,15,28,12,9,88,79,73,30.27,29.55,22,16,35,0.00
2013-4-10,26,22,17,18,14,11,80,71,63,30.23,29.97,18,11,24,0.00
2013-4-11,36,27,16,26,19,11,82,72,58,29.97,29.77,12,4,20,0.00
2013-4-12,47,37,29,36,29,23,86,72,51,29.95,29.86,11,3,18,0.00
2013-4-13,65,46,25,44,35,23,93,68,38,29.94,29.22,11,2,22,0.01
2013-4-14,51,45,35,44,28,15,82,54,27,29.63,29.21,22,11,34,0.00
2013-4-15,44,34,26,26,20,15,88,57,37,30.07,29.62,13,3,20,0.00
2013-4-16,37,32,28,32,28,26,93,86,70,30.13,29.99,5,1,14,0.19
2013-4-17,34,29,26,32,26,21,93,89,78,30.09,29.94,15,8,23,0.00
2013-4-18,33,28,25,22,19,15,83,68,48,30.11,30.02,16,11,22,0.01
2013-4-19,53,39,23,32,26,18,81,61,38,30.06,29.91,12,3,20,0.00
2013-4-20,59,44,30,34,29,26,87,61,29,29.94,29.82,8,2,15,0.01
2013-4-21,63,50,34,42,36,30,89,63,29,29.92,29.84,12,2,15,0.00
2013-4-22,44,34,25,41,28,16,96,80,62,30.32,29.78,17,8,27,0.02
2013-4-23,42,31,22,19,16,11,74,54,29,30.31,30.13,9,3,18,0.00
2013-4-24,55,38,19,26,19,12,82,51,20,30.18,30.08,17,5,23,0.00
2013-4-25,71,53,28,29,24,19,72,37,15,30.15,29.73,10,2,19,0.00
2013-4-26,73,55,34,29,24,20,62,34,14,30.00,29.79,9,2,15,0.00
2013-4-27,80,59,36,34,26,18,75,35,10,30.00,29.70,5,0,17,0.00
2013-4-28,81,63,42,33,30,28,62,34,15,29.71,29.57,11,4,19,0.00
2013-4-29,83,66,47,39,34,27,63,35,13,29.67,29.25,14,3,23,0.00
2013-4-30,62,54,41,40,31,20,76,46,23,29.85,29.27,18,6,26,0.00
2013-5-1,41,32,30,34,30,28,96,94,76,30.53,29.83,16,3,18,0.43
2013-5-5,65,57,43,31,24,20,59,30,18,30.15,29.99,5,1,14,0.00
2013-5-6,72,57,41,38,30,23,62,39,19,30.01,29.78,7,2,19,0.00
2013-5-7,68,57,44,51,45,36,86,64,47,29.82,29.66,11,2,18,0.00
2013-5-8,74,60,44,53,45,36,96,63,27,29.81,29.71,6,1,14,0.27
2013-5-9,67,57,46,47,43,37,85,62,34,29.96,29.80,12,3,18,0.00
2013-5-10,73,59,43,47,41,35,90,57,26,30.03,29.89,10,1,14,0.00
2013-5-11,67,57,45,43,30,22,64,39,20,30.20,30.01,6,1,14,0.00
2013-5-12,79,61,40,44,37,31,76,44,21,30.03,29.82,4,0,14,0.00
2013-5-13,93,75,51,48,40,34,71,34,13,29.84,29.61,5,1,14,0.00
2013-5-14,96,79,57,49,42,34,61,31,12,29.61,29.44,7,1,14,0.00
2013-5-15,81,70,61,46,40,34,42,33,23,29.65,29.53,5,1,17,0.00
2013-5-16,76,65,53,60,49,34,89,58,30,29.63,29.48,6,1,15,0.26
2013-5-17,86,73,59,62,54,49,81,55,28,29.62,29.44,15,5,25,0.00
2013-5-18,83,69,54,65,58,50,88,71,41,29.52,29.32,17,2,22,0.56
2013-5-19,59,55,53,54,52,51,96,90,80,29.53,29.43,13,3,21,2.13
2013-5-20,59,54,50,52,47,43,95,78,57,29.67,29.52,19,7,28,0.20
2013-5-21,60,53,46,46,43,41,83,68,54,29.77,29.67,17,7,29,0.00
2013-5-22,68,55,46,48,44,41,83,68,46,29.92,29.73,7,2,14,0.00
2013-5-23,69,59,48,49,46,43,87,64,45,30.02,29.90,8,2,15,0.00
2013-5-24,80,63,54,62,54,49,98,75,44,29.90,29.63,12,5,22,0.07
2013-5-25,88,72,60,60,55,47,88,59,24,29.74,29.52,8,2,22,0.00
2013-5-26,87,74,62,65,60,50,92,64,37,29.56,29.45,6,1,14,0.00
2013-5-27,72,64,58,65,58,48,96,82,54,29.57,29.39,27,2,27,0.08
2013-5-28,82,65,49,57,52,47,95,68,33,29.58,29.33,20,2,22,1.57
2013-5-29,72,60,54,59,55,51,94,82,59,29.48,29.12,10,1,18,0.58
2013-5-30,76,62,50,51,44,32,94,59,21,29.53,29.32,15,5,28,0.01
2013-5-31,69,58,46,46,41,32,87,57,29,29.69,29.50,20,9,26,0.01
2013-6-1,68,56,46,46,42,34,86,61,30,30.00,29.69,17,8,26,0.02
2013-6-2,76,59,40,48,43,37,91,59,32,30.01,29.68,10,2,18,0.00
2013-6-3,88,66,51,61,50,44,90,58,25,29.71,29.39,13,3,19,0.62
2013-6-4,77,65,54,56,49,45,88,59,36,29.91,29.56,9,1,14,0.23
2013-6-5,67,56,48,50,46,42,92,71,41,29.97,29.89,10,1,14,0.41
2013-6-6,75,60,43,52,47,41,94,65,37,29.95,29.80,3,0,14,0.00
2013-6-7,83,66,49,54,49,43,90,58,26,29.88,29.51,8,1,14,0.03
2013-6-8,75,64,55,59,54,46,93,73,43,29.70,29.39,11,2,23,0.13
2013-6-9,84,68,52,53,49,44,88,56,25,29.77,29.63,5,1,14,0.00
2013-6-10,99,77,56,61,50,42,73,44,16,29.66,29.44,7,1,16,0.00
2013-6-11,93,80,65,65,62,57,87,57,31,29.48,29.29,9,2,15,0.00
2013-6-12,86,71,58,64,56,49,87,60,28,29.85,29.48,8,2,14,0.00
2013-6-13,81,66,52,62,53,48,88,64,41,29.93,29.61,12,2,16,0.01
2013-6-14,85,76,68,64,58,51,80,56,33,29.64,29.54,7,2,19,0.00
2013-6-15,82,72,62,62,58,53,83,63,43,29.73,29.59,7,1,14,0.00
2013-6-16,89,71,59,62,56,51,89,64,28,29.81,29.60,11,2,15,0.00
2013-6-17,82,69,53,57,54,50,95,63,35,29.89,29.78,7,1,14,0.00
2013-6-18,87,73,57,61,53,47,85,55,27,29.91,29.63,17,2,29,0.06
2013-6-19,84,74,59,63,59,55,89,61,45,29.71,29.46,14,5,26,0.00
2013-6-20,86,75,64,66,63,60,88,68,48,29.51,29.43,8,1,18,0.00
2013-6-21,90,76,65,66,58,47,80,56,35,29.58,29.40,21,2,25,0.28
2013-6-22,78,69,59,66,60,50,92,73,52,29.65,29.41,17,3,23,0.57
2013-6-23,84,72,59,64,56,44,84,60,30,29.69,29.43,9,1,21,0.01
2013-6-24,87,76,66,69,58,48,87,56,38,29.62,29.37,11,2,24,0.02
2013-6-25,91,78,65,68,58,44,94,58,20,29.56,29.36,13,3,20,0.00
2013-6-26,99,80,59,61,54,42,91,48,15,29.68,29.56,5,1,14,0.00
2013-6-27,89,79,67,64,56,50,72,48,28,29.84,29.61,8,2,15,0.00
2013-6-28,89,77,64,62,56,48,83,52,25,29.90,29.78,6,1,14,0.00
2013-6-29,84,73,59,58,53,46,82,51,33,29.86,29.76,7,2,14,0.00
2013-6-30,83,69,56,57,51,44,82,56,28,29.95,29.86,5,1,14,0.00
2013-7-1,80,69,60,54,50,45,76,53,32,30.02,29.94,3,0,14,0.00
2013-7-2,83,68,53,49,45,42,74,46,24,30.01,29.86,6,0,14,0.00
2013-7-3,88,72,58,50,45,38,61,40,18,29.88,29.61,4,1,14,0.00
2013-7-4,92,76,58,56,48,42,64,41,20,29.64,29.52,7,1,14,0.00
2013-7-5,90,77,59,58,54,51,78,48,27,29.56,29.41,4,0,14,0.00
2013-7-6,97,79,63,61,56,51,80,49,22,29.51,29.42,2,0,14,0.00
2013-7-7,92,80,69,66,62,58,77,57,39,29.69,29.51,9,1,15,0.00
2013-7-8,94,76,61,70,62,58,91,64,31,29.71,29.58,5,0,14,0.01
2013-7-9,96,81,65,68,63,56,92,58,27,29.81,29.63,4,1,14,0.00
2013-7-10,86,74,66,64,61,56,91,66,37,29.89,29.72,5,1,14,0.10
2013-7-11,93,78,66,65,62,56,89,60,30,29.80,29.54,7,2,19,0.00
2013-7-12,100,83,69,66,61,52,78,52,22,29.59,29.47,18,2,24,0.00
2013-7-13,98,82,69,68,63,58,78,55,28,29.64,29.53,8,2,17,0.00
2013-7-14,81,73,68,71,67,64,95,81,67,29.87,29.59,13,2,24,1.15
2013-7-15,82,73,66,66,60,50,95,68,34,29.93,29.83,6,2,17,0.08
2013-7-16,82,71,61,62,59,55,93,68,40,30.00,29.88,7,2,15,0.00
2013-7-17,86,75,61,63,60,57,93,64,38,30.02,29.84,12,4,23,0.00
2013-7-18,93,80,66,65,61,56,86,56,29,29.86,29.60,9,2,22,0.00
2013-7-19,90,78,64,63,59,49,83,54,27,29.74,29.64,6,1,14,0.00
2013-7-20,89,73,59,65,60,55,94,68,36,29.72,29.56,12,1,16,0.00
2013-7-21,89,75,59,63,58,54,89,58,33,29.74,29.49,7,2,14,0.00
2013-7-22,91,79,66,65,61,53,76,55,38,29.60,29.54,6,1,14,0.00
2013-7-23,90,75,63,63,57,50,83,56,26,29.79,29.58,8,1,15,0.00
2013-7-24,88,72,62,65,59,50,94,68,28,29.92,29.77,16,2,21,0.63
2013-7-25,83,71,62,64,60,55,93,69,49,29.92,29.75,4,0,14,0.04
2013-7-26,80,68,61,59,55,49,90,65,37,30.06,29.88,7,1,18,0.00
2013-7-27,67,62,56,54,52,50,86,70,60,29.93,29.82,6,1,14,0.00
2013-7-28,62,60,58,58,54,49,97,82,71,29.87,29.77,3,0,14,0.00
2013-7-29,78,66,58,64,61,58,99,85,59,29.84,29.74,2,0,14,0.01
2013-7-30,87,74,63,66,62,58,98,72,40,29.95,29.74,7,1,16,0.66
2013-7-31,88,74,64,67,64,60,95,74,41,29.93,29.81,4,0,14,0.00
2013-8-1,88,74,65,68,63,58,93,71,41,29.88,29.55,20,2,27,0.33
2013-8-2,85,73,63,67,64,60,92,74,51,29.75,29.57,5,1,14,0.00
2013-8-3,76,69,65,67,64,61,93,85,62,29.93,29.75,7,1,15,0.08
2013-8-4,81,72,63,67,65,62,97,82,60,29.90,29.72,4,1,14,0.00
2013-8-5,91,76,65,69,65,58,98,72,40,29.76,29.59,4,0,14,0.00
2013-8-6,88,75,62,68,63,58,92,69,42,29.67,29.57,3,0,14,0.00
2013-8-7,79,71,60,63,60,57,91,70,51,29.79,29.72,5,0,14,0.00
2013-8-8,80,69,59,61,59,54,93,73,44,29.83,29.74,4,1,14,0.00
2013-10-10,55,54,53,52,50,49,90,89,85,29.29,29.27,9,5,16,0.24
2013-10-11,59,51,40,48,40,34,88,69,44,29.90,29.23,19,8,31,0.10
2013-10-12,61,47,35,37,33,28,91,61,33,30.11,29.90,3,0,14,0.00
2013-10-13,65,53,39,48,36,33,78,56,32,30.16,29.84,11,3,26,0.00
2013-10-14,61,52,39,58,46,30,96,80,64,29.90,29.47,19,8,33,0.24
2013-10-15,44,39,32,31,29,27,83,68,57,30.15,29.90,15,8,26,0.00
2013-10-16,53,38,27,34,29,25,91,72,41,30.13,29.89,5,0,14,0.00
2013-10-17,49,39,29,34,29,25,87,68,47,30.06,29.91,11,2,20,0.00
2013-10-18,48,38,28,34,28,19,91,67,36,30.08,30.00,12,3,20,0.00
2013-10-19,64,45,28,33,28,22,83,56,24,30.01,29.72,10,2,17,0.00
2013-10-20,57,46,33,38,33,29,85,64,35,29.99,29.70,13,3,19,0.00
2013-10-21,59,45,31,39,33,28,91,66,38,30.01,29.90,14,2,18,0.00
2013-10-22,62,52,40,40,37,35,82,59,37,29.95,29.89,14,2,20,0.00
2013-10-23,65,48,35,40,36,31,92,68,35,30.12,29.90,9,2,14,0.00
2013-10-24,53,42,37,39,36,34,90,78,57,30.23,30.12,3,0,14,0.00
2013-10-25,67,46,30,40,36,28,94,70,35,30.21,29.92,6,1,14,0.00
2013-10-26,64,48,36,40,33,28,88,60,27,30.18,29.95,4,1,14,0.00
2013-10-27,76,53,32,37,31,25,88,51,16,29.95,29.65,8,1,14,0.00
2013-10-28,50,38,33,35,31,28,95,76,56,30.04,29.74,10,5,18,0.00
2013-10-29,38,35,33,35,33,32,95,92,88,30.03,29.91,3,0,14,0.01
2013-10-30,56,40,32,39,33,28,95,80,42,29.97,29.67,10,1,14,0.00
2013-10-31,59,44,31,33,29,24,86,58,28,29.68,29.56,17,6,28,0.00
2013-11-1,55,45,29,37,27,19,78,53,27,30.08,29.66,20,8,30,0.00
2013-11-2,62,42,23,29,23,18,82,51,23,30.16,29.69,9,2,19,0.00
2013-11-3,52,41,32,35,30,25,80,67,46,29.70,29.43,11,2,23,0.00
2013-11-4,48,41,34,36,29,24,92,66,40,29.98,29.70,13,2,18,0.01
2013-11-5,40,33,25,33,30,21,96,87,64,30.13,29.89,10,1,17,0.47
2013-11-6,47,30,15,31,23,12,89,76,51,30.34,30.12,7,1,14,0.10
2013-11-7,54,39,24,36,29,20,89,69,44,30.42,29.95,8,1,16,0.00
2013-11-8,69,47,33,36,30,27,81,56,22,29.93,29.62,15,4,25,0.00
2013-11-9,58,44,33,35,29,26,84,60,29,30.22,29.91,3,0,14,0.00
2013-11-10,64,44,28,43,35,25,92,73,41,30.22,30.02,8,1,14,0.00
2013-11-11,37,30,24,34,25,20,91,83,71,30.72,30.00,11,2,14,0.00
2013-11-12,50,34,21,33,27,18,90,74,51,30.74,30.31,7,1,15,0.00
2013-11-13,70,43,22,36,27,19,90,61,17,30.31,29.82,7,0,14,0.00
2013-11-14,59,47,39,38,34,30,77,61,37,29.91,29.70,10,1,20,0.00
2013-11-15,62,46,35,38,32,28,89,63,28,29.70,29.27,10,1,14,0.00
2013-11-16,56,46,33,33,27,22,89,52,29,29.32,29.21,11,1,14,0.00
2013-11-17,49,40,24,25,16,6,62,40,17,30.03,29.32,23,8,34,0.00
2013-11-18,60,39,21,23,19,13,75,47,22,30.11,29.95,4,0,14,0.00
2013-11-19,52,37,21,28,23,16,80,60,36,29.94,29.62,2,0,14,0.00
2013-11-20,63,45,26,35,29,18,77,58,26,30.01,29.63,16,3,24,0.00
2013-11-21,26,17,15,18,10,7,79,73,66,30.59,30.01,15,10,20,0.00
2013-11-22,18,17,16,9,7,6,71,65,58,30.73,30.69,1,0,14,0.00
2013-11-23,30,20,10,16,11,3,80,68,52,30.82,30.54,2,0,14,0.00
2013-11-24,38,27,12,25,19,7,84,71,56,30.54,30.02,14,2,28,0.00
2013-11-25,46,32,17,28,22,14,88,67,42,30.28,30.02,12,2,17,0.00
2013-11-26,38,30,20,22,20,16,89,68,47,30.39,30.28,6,2,14,0.00
2013-11-27,59,44,32,28,25,22,73,50,27,30.10,29.95,7,2,14,0.00
2013-11-28,42,30,20,24,21,16,85,71,47,30.26,30.10,2,0,14,0.00
2013-11-29,46,29,21,31,24,17,91,80,55,30.24,30.04,4,0,14,0.00
2013-11-30,58,42,27,32,26,22,82,55,27,30.14,30.02,8,2,14,0.00
2013-12-1,56,38,22,32,26,18,86,64,31,30.08,29.70,11,1,19,0.00
2013-12-2,63,45,31,34,28,25,81,54,25,29.70,29.41,12,1,18,0.00
2013-12-3,54,34,17,30,22,8,82,63,36,29.75,29.34,15,6,24,0.00
2013-12-4,17,12,4,8,2,-7,72,62,55,30.23,29.73,17,12,25,0.00
2013-12-5,-1,-1,-1,-11,-11,-11,64,64,64,30.36,30.36,3,3,3,0.00
2013-12-9,21,19,15,4,3,3,61,50,45,30.21,30.18,8,3,14,0.00
2013-12-10,38,24,9,21,10,1,76,57,30,30.37,30.05,12,3,18,0.00
2013-12-11,36,21,7,18,11,2,80,68,46,30.50,30.32,11,2,19,0.00
2013-12-12,55,27,12,20,12,7,80,59,20,30.38,29.96,4,0,14,0.00
2013-12-13,47,28,15,22,16,8,75,61,30,30.13,29.79,13,4,22,0.00
2013-12-14,47,34,23,27,22,17,89,63,37,30.19,30.07,13,2,18,0.00
2013-12-15,55,42,30,24,21,18,66,45,27,30.07,29.90,15,4,20,0.00
2013-12-16,59,40,25,22,19,16,70,48,23,30.14,29.89,11,2,17,0.00
2013-12-17,55,36,20,26,19,14,80,54,25,30.27,29.90,9,1,16,0.00
2013-12-18,67,41,29,24,20,16,69,46,16,29.90,29.61,7,1,14,0.00
2013-12-19,38,25,11,25,18,1,84,74,54,29.97,29.61,13,5,25,0.00
2013-12-20,25,16,8,9,4,0,73,61,47,30.01,29.78,10,2,14,0.00
2013-12-21,39,22,7,19,10,2,81,63,37,29.95,29.71,7,1,14,0.00
2013-12-22,35,23,13,22,14,7,86,72,42,30.36,29.95,10,2,14,0.00
2013-12-23,23,11,-5,16,5,-11,83,77,72,30.50,30.26,7,1,16,0.00
2013-12-24,42,26,8,34,21,4,89,81,60,30.31,30.07,11,2,21,0.02
2013-12-25,41,29,20,22,18,13,86,65,39,30.37,30.18,13,4,21,0.00
2013-12-26,52,33,20,24,18,13,76,57,29,30.23,30.13,11,2,17,0.00
2013-12-27,60,36,21,26,20,14,79,59,25,30.22,29.97,10,1,14,0.00
2013-12-28,54,29,12,27,17,1,78,63,29,30.28,29.77,18,7,26,0.00
2013-12-29,31,18,6,13,5,-1,72,57,39,30.37,30.04,12,2,15,0.00
2013-12-30,46,33,21,26,19,13,76,57,36,30.14,29.99,19,5,26,0.00
2013-12-31,55,36,21,25,20,14,76,56,28,30.09,29.89,15,2,21,0.00
2014-1-1,35,26,14,32,20,10,89,79,60,30.31,29.86,9,2,15,0.05
2014-1-2,37,24,16,26,18,10,87,78,64,30.33,30.04,6,0,14,0.02